Lake Wawasee Weather Center

Moon Phase Calendar



Lake Wawasee Water Level
Online Cameras

 


      

Current Conditions in Syracuse
12/1/2020 10:42:33 AM

35°F
Feels Like 20
Clouds
Humidity
69%
Pressure
29.91"
Wind
17.2 mph (NW)
Dew Point
26°F
UV Index
1/10 (Low)
Visibility
6 mi

Hourly Forecast

Date & Time Tue, Dec 1
10:00 AM
Tue, Dec 1
11:00 AM
Tue, Dec 1
12:00 PM
Tue, Dec 1
1:00 PM
Tue, Dec 1
2:00 PM
Tue, Dec 1
3:00 PM
Tue, Dec 1
4:00 PM
Tue, Dec 1
5:00 PM
Tue, Dec 1
6:00 PM
Tue, Dec 1
7:00 PM
Tue, Dec 1
8:00 PM
Tue, Dec 1
9:00 PM
Tue, Dec 1
10:00 PM
Tue, Dec 1
11:00 PM
Wed, Dec 2
12:00 AM
Wed, Dec 2
1:00 AM
Wed, Dec 2
2:00 AM
Wed, Dec 2
3:00 AM
Wed, Dec 2
4:00 AM
Wed, Dec 2
5:00 AM
Wed, Dec 2
6:00 AM
Wed, Dec 2
7:00 AM
Wed, Dec 2
8:00 AM
Wed, Dec 2
9:00 AM
Wed, Dec 2
10:00 AM
Wed, Dec 2
11:00 AM
Wed, Dec 2
12:00 PM
Wed, Dec 2
1:00 PM
Wed, Dec 2
2:00 PM
Wed, Dec 2
3:00 PM
Wed, Dec 2
4:00 PM
Wed, Dec 2
5:00 PM
Wed, Dec 2
6:00 PM
Wed, Dec 2
7:00 PM
Wed, Dec 2
8:00 PM
Wed, Dec 2
9:00 PM
Wed, Dec 2
10:00 PM
Wed, Dec 2
11:00 PM
Thu, Dec 3
12:00 AM
Thu, Dec 3
1:00 AM
Thu, Dec 3
2:00 AM
Thu, Dec 3
3:00 AM
Thu, Dec 3
4:00 AM
Thu, Dec 3
5:00 AM
Thu, Dec 3
6:00 AM
Thu, Dec 3
7:00 AM
Thu, Dec 3
8:00 AM
Thu, Dec 3
9:00 AM
Condition
Clouds

Clouds

Clouds

Clouds

Clouds

Clouds

Clouds

Clouds

Clouds

Clouds

Clouds

Clouds

Clouds

Clouds

Clouds

Clouds

Clear

Clear

Clear

Clear

Clear

Clear

Clouds

Clear

Clear

Clear

Clear

Clear

Clouds

Clouds

Clear

Clear

Clear

Clouds

Clouds

Clouds

Clouds

Clouds

Clouds

Clouds

Clouds

Clouds

Clouds

Clouds

Clouds

Clouds

Clouds

Clouds
Temperature 35°F34°F35°F35°F34°F34°F33°F33°F32°F32°F33°F32°F30°F29°F30°F31°F31°F31°F31°F31°F30°F30°F29°F32°F35°F37°F38°F39°F40°F39°F37°F33°F30°F30°F29°F29°F29°F30°F29°F30°F30°F29°F28°F28°F28°F28°F28°F30°F
Feels Like 21°F20°F20°F19°F19°F19°F19°F19°F18°F19°F20°F21°F20°F19°F19°F20°F20°F20°F20°F21°F21°F20°F20°F22°F25°F27°F29°F30°F30°F30°F28°F25°F22°F21°F21°F21°F20°F21°F21°F20°F21°F20°F20°F19°F20°F19°F19°F19°F
Cloudiness 75%87%94%97%98%96%96%96%95%95%98%96%72%54%43%36%0%0%0%0%0%2%17%9%6%4%4%5%24%12%9%6%6%12%31%50%56%65%66%71%91%77%71%74%79%79%98%73%
Visibility 6 mi6 mi6 mi6 mi6 mi6 mi6 mi6 mi6 mi6 mi6 mi6 mi6 mi6 mi6 mi6 mi6 mi6 mi6 mi6 mi6 mi6 mi6 mi6 mi6 mi6 mi6 mi6 mi6 mi6 mi6 mi6 mi6 mi6 mi6 mi6 mi6 mi6 mi6 mi6 mi6 mi6 mi6 mi6 mi6 mi6 mi6 mi6 mi
Precipitation 51%45%41%43%14%5%5%2%0%0%0%0%0%0%0%0%0%0%0%0%0%0%0%0%0%0%0%0%0%0%0%0%0%0%0%0%0%0%0%0%0%0%0%0%0%0%0%0%
Humidity 69%79%82%85%89%89%90%93%94%94%92%93%96%96%96%96%96%96%96%96%97%97%97%96%85%79%75%72%71%73%78%92%96%94%93%92%91%91%90%89%90%90%90%90%90%90%90%88%
Dew Point 26°F29°F30°F31°F31°F28°F28°F28°F27°F27°F27°F27°F26°F26°F26°F27°F27°F27°F28°F28°F28°F27°F27°F28°F28°F29°F29°F29°F29°F29°F29°F28°F26°F24°F23°F22°F22°F21°F20°F20°F20°F20°F19°F19°F19°F19°F19°F19°F
Pressure 29.91"29.91"29.94"29.97"29.94"29.94"29.97"30"30.03"30.03"30.06"30.09"30.09"30.12"30.12"30.15"30.15"30.18"30.18"30.21"30.24"30.27"30.27"30.3"30.3"30.3"30.3"30.3"30.3"30.3"30.3"30.3"30.3"30.3"30.3"30.33"30.33"30.3"30.3"30.3"30.3"30.3"30.27"30.27"30.27"30.27"30.27"30.27"
Wind Speed 17.2 mph18.5 mph19 mph20.7 mph20.2 mph20 mph19.2 mph18.3 mph18.3 mph16.8 mph15.3 mph13.1 mph10.8 mph10.2 mph11.9 mph12.2 mph12.1 mph12.1 mph12 mph11.4 mph10.5 mph9.6 mph9 mph9.5 mph10.6 mph10.6 mph11 mph11 mph10.9 mph10.3 mph9.1 mph7.8 mph7.6 mph7.1 mph7.6 mph7.6 mph9.5 mph8.7 mph7.6 mph9.8 mph8.1 mph8.1 mph7.5 mph7.9 mph6.2 mph8.2 mph8.2 mph11.6 mph
Wind
Direction
321°
NW
319°
NW
316°
NW
314°
NW
313°
NW
312°
NW
307°
NW
305°
NW
305°
NW
305°
NW
308°
NW
303°
WNW
288°
WNW
284°
WNW
285°
WNW
293°
WNW
296°
WNW
294°
WNW
296°
WNW
296°
WNW
293°
WNW
288°
WNW
286°
WNW
295°
WNW
299°
WNW
286°
WNW
286°
WNW
285°
WNW
282°
WNW
284°
WNW
278°
W
260°
W
255°
WSW
251°
WSW
243°
WSW
245°
WSW
244°
WSW
246°
WSW
248°
WSW
246°
WSW
250°
WSW
242°
WSW
250°
WSW
247°
WSW
244°
WSW
235°
SW
223°
SW
228°
SW

Daily Forecast

Date High Low Precip. Humidity
Today
Dec 1

Snow
35 °F
28 °F
51%
82%
Wednesday
Dec 2

Clear
40 °F
29 °F
0%
75%
Thursday
Dec 3

Clouds
39 °F
28 °F
0%
68%
Friday
Dec 4

Clear
42 °F
31 °F
0%
73%
Saturday
Dec 5

Rain
37 °F
33 °F
100%
91%
Sunday
Dec 6

Snow
38 °F
33 °F
100%
78%
Monday
Dec 7

Clear
40 °F
30 °F
0%
72%
Tuesday
Dec 8

Clear
41 °F
31 °F
0%
69%
Wednesday
Dec 9

Clouds
41 °F
32 °F
0%
75%
Thursday
Dec 10

Clouds
46 °F
34 °F
0%
58%
Friday
Dec 11

Rain
41 °F
37 °F
100%
95%
Saturday
Dec 12

Snow
35 °F
27 °F
34%
92%
Sunday
Dec 13

Clouds
35 °F
26 °F
0%
67%
Monday
Dec 14

Snow
44 °F
29 °F
100%
98%
Tuesday
Dec 15

Snow
31 °F
16 °F
100%
92%
Wednesday
Dec 16

Snow
21 °F
14 °F
36%
92%


Temperature 8-14 Day Outlook



Precipitation 8-14 Day Outlook




Quick Links
Lake Wawasee News
Lake Wawasee Photos
Lake Wawasee Videos




About Us
Contact Us
Site Map
Search Site
Advertise With Us
   
Wawasee.USLakes.info
THE LAKE WAWASEE WEBSITE

Copyright 2020, Lakes Online
Privacy    |    Legal